BBJ964 ULLI-URKK

Flight info

Callsign BBJ964
Flight time 2h 22m
Altitude 35000
Route SUGIN T873 TOKNU L4 EKTUT N72 UMSIS N166 GOTIL G534 GISID L91 KL A100 AMEPU W70 BALEG
Aircraft B736/M-URKK/S

Departure

Time 2026-05-08 16:49
Airport Pulkovo Airport (ULLI)

Arrival

Time 2026-05-08 19:11
Airport Krasnodar Pashkovsky International Airport (URKK)
Time Latitude Longitude Altitude Speed Heading
2026-05-08 16:38 59.79806 30.26291 84 ft 0 kts 287°
2026-05-08 16:39 59.79806 30.26287 88 ft 3 kts 287°
2026-05-08 16:39 59.79818 30.26215 85 ft 6 kts 287°
2026-05-08 16:40 59.79828 30.26180 84 ft 3 kts 320°
2026-05-08 16:40 59.79846 30.26179 84 ft 3 kts 12°
2026-05-08 16:40 59.79863 30.26186 87 ft 3 kts 11°
2026-05-08 16:40 59.79882 30.26194 84 ft 3 kts 15°
2026-05-08 16:41 59.79908 30.26210 84 ft 5 kts 18°
2026-05-08 16:41 59.79950 30.26235 83 ft 8 kts 17°
2026-05-08 16:41 59.80008 30.26270 86 ft 10 kts 17°
2026-05-08 16:42 59.80168 30.26364 84 ft 14 kts 17°
2026-05-08 16:42 59.80258 30.26417 84 ft 13 kts 15°
2026-05-08 16:42 59.80346 30.26451 87 ft 13 kts 360°
2026-05-08 16:42 59.80415 30.26482 84 ft 9 kts 15°
2026-05-08 16:43 59.80462 30.26435 84 ft 8 kts 294°
2026-05-08 16:43 59.80476 30.26322 86 ft 8 kts 286°
2026-05-08 16:43 59.80493 30.26215 85 ft 8 kts 287°
2026-05-08 16:43 59.80509 30.26110 85 ft 8 kts 287°
2026-05-08 16:44 59.80524 30.26008 77 ft 8 kts 287°
2026-05-08 16:44 59.80539 30.25909 73 ft 7 kts 286°
2026-05-08 16:44 59.80553 30.25814 77 ft 7 kts 288°
2026-05-08 16:44 59.80567 30.25721 75 ft 7 kts 285°
2026-05-08 16:45 59.80580 30.25630 75 ft 7 kts 286°
2026-05-08 16:45 59.80594 30.25537 70 ft 7 kts 287°
2026-05-08 16:45 59.80609 30.25436 72 ft 8 kts 287°
2026-05-08 16:45 59.80627 30.25324 74 ft 9 kts 287°
2026-05-08 16:46 59.80644 30.25204 77 ft 9 kts 285°
2026-05-08 16:46 59.80663 30.25078 72 ft 10 kts 287°
2026-05-08 16:46 59.80683 30.24945 72 ft 10 kts 287°
2026-05-08 16:46 59.80704 30.24806 75 ft 10 kts 286°
2026-05-08 16:47 59.80724 30.24675 70 ft 9 kts 292°
2026-05-08 16:47 59.80768 30.24613 72 ft 8 kts 346°
2026-05-08 16:47 59.80822 30.24589 69 ft 8 kts 347°
2026-05-08 16:47 59.80881 30.24563 66 ft 8 kts 351°
2026-05-08 16:48 59.80930 30.24560 67 ft 7 kts 11°
2026-05-08 16:48 59.80959 30.24631 69 ft 7 kts 86°
2026-05-08 16:48 59.80948 30.24731 69 ft 8 kts 106°
2026-05-08 16:48 59.80890 30.25105 68 ft 78 kts 106°
2026-05-08 16:49 59.80627 30.26814 299 ft 163 kts 106°
2026-05-08 16:49 59.80278 30.29055 1876 ft 175 kts 104°
2026-05-08 16:49 59.79905 30.31467 3157 ft 195 kts 104°
2026-05-08 16:49 59.79502 30.34267 3731 ft 227 kts 104°
2026-05-08 16:50 59.79063 30.37292 4418 ft 235 kts 104°
2026-05-08 16:50 59.78596 30.40449 5207 ft 240 kts 104°
2026-05-08 16:50 59.78121 30.43645 6090 ft 242 kts 104°
2026-05-08 16:50 59.77628 30.46945 6764 ft 259 kts 105°
2026-05-08 16:51 59.77100 30.50466 7597 ft 272 kts 105°
2026-05-08 16:51 59.76552 30.54103 8609 ft 278 kts 105°
2026-05-08 16:51 59.75992 30.57824 9634 ft 285 kts 104°
2026-05-08 16:51 59.75440 30.61640 10592 ft 292 kts 104°
2026-05-08 16:52 59.74863 30.65693 11005 ft 320 kts 104°
2026-05-08 16:52 59.74241 30.70076 11228 ft 349 kts 105°
2026-05-08 16:52 59.73563 30.74831 11791 ft 365 kts 105°
2026-05-08 16:52 59.72860 30.79726 12600 ft 373 kts 105°
2026-05-08 16:53 59.71405 30.89796 14305 ft 388 kts 106°
2026-05-08 16:53 59.70653 30.94976 15058 ft 395 kts 107°
2026-05-08 16:53 59.69883 31.00260 15853 ft 402 kts 107°
2026-05-08 16:54 59.69098 31.05630 16629 ft 410 kts 108°
2026-05-08 16:54 59.68307 31.11020 17397 ft 417 kts 108°
2026-05-08 16:54 59.67488 31.16585 18156 ft 425 kts 108°
2026-05-08 16:54 59.66654 31.22241 18866 ft 432 kts 109°
2026-05-08 16:55 59.65805 31.27971 19561 ft 438 kts 109°
2026-05-08 16:55 59.64943 31.33776 20283 ft 442 kts 109°
2026-05-08 16:55 59.64067 31.39651 20973 ft 448 kts 110°
2026-05-08 16:55 59.63178 31.45592 21631 ft 454 kts 110°
2026-05-08 16:56 59.62276 31.51602 22307 ft 459 kts 111°
2026-05-08 16:56 59.61374 31.57592 22967 ft 464 kts 111°
2026-05-08 16:56 59.60443 31.63745 23604 ft 470 kts 111°
2026-05-08 16:56 59.59499 31.69967 24183 ft 475 kts 111°
2026-05-08 16:57 59.58545 31.76235 24767 ft 479 kts 111°
2026-05-08 16:57 59.57583 31.82537 25370 ft 481 kts 112°
2026-05-08 16:57 59.56614 31.88870 25968 ft 484 kts 112°
2026-05-08 16:57 59.55633 31.95252 26536 ft 487 kts 112°
2026-05-08 16:58 59.54643 32.01662 27089 ft 491 kts 112°
2026-05-08 16:58 59.53600 32.07980 27610 ft 489 kts 118°
2026-05-08 16:58 59.51923 32.13685 28107 ft 477 kts 136°
2026-05-08 16:58 59.49671 32.18371 28701 ft 469 kts 143°
2026-05-08 16:59 59.47327 32.22856 29254 ft 470 kts 144°
2026-05-08 16:59 59.44961 32.27328 29729 ft 474 kts 144°
2026-05-08 16:59 59.42583 32.31839 30225 ft 476 kts 144°
2026-05-08 16:59 59.40222 32.36359 30864 ft 473 kts 143°
2026-05-08 17:00 59.37881 32.40876 31465 ft 471 kts 143°
2026-05-08 17:00 59.35544 32.45395 31895 ft 473 kts 143°
2026-05-08 17:00 59.33231 32.49867 32274 ft 475 kts 143°
2026-05-08 17:00 59.30876 32.54414 32729 ft 475 kts 143°
2026-05-08 17:01 59.28526 32.58951 33239 ft 474 kts 143°
2026-05-08 17:01 59.26180 32.63467 33711 ft 474 kts 144°
2026-05-08 17:01 59.23824 32.67991 34107 ft 475 kts 144°
2026-05-08 17:01 59.21463 32.72511 34480 ft 476 kts 144°
2026-05-08 17:02 59.19102 32.77025 34893 ft 474 kts 143°
2026-05-08 17:02 59.16744 32.81525 35247 ft 475 kts 143°
2026-05-08 17:02 59.12024 32.90494 35283 ft 477 kts 143°
2026-05-08 17:03 59.07290 32.99468 35281 ft 474 kts 143°
2026-05-08 17:03 59.02569 33.08372 35285 ft 472 kts 144°
2026-05-08 17:04 58.97847 33.17241 35283 ft 472 kts 144°
2026-05-08 17:04 58.93154 33.26024 35275 ft 472 kts 145°
2026-05-08 17:05 58.88398 33.34881 35276 ft 477 kts 144°
2026-05-08 17:05 58.83597 33.43775 35275 ft 479 kts 144°
2026-05-08 17:06 58.78784 33.52665 35266 ft 480 kts 144°
2026-05-08 17:06 58.73962 33.61542 35262 ft 479 kts 144°
2026-05-08 17:07 58.69165 33.70338 35264 ft 479 kts 144°
2026-05-08 17:07 58.64329 33.79166 35266 ft 479 kts 144°
2026-05-08 17:08 58.59496 33.87955 35264 ft 479 kts 144°
2026-05-08 17:08 58.54688 33.96663 35261 ft 479 kts 144°
2026-05-08 17:09 58.49842 34.05404 35261 ft 479 kts 144°
2026-05-08 17:09 58.44992 34.14120 35262 ft 479 kts 144°
2026-05-08 17:10 58.40145 34.22795 35267 ft 479 kts 144°
2026-05-08 17:10 58.35258 34.31507 35253 ft 480 kts 144°
2026-05-08 17:11 58.30374 34.40181 35243 ft 481 kts 144°
2026-05-08 17:11 58.25510 34.48788 35247 ft 481 kts 144°
2026-05-08 17:12 58.20485 34.57069 35240 ft 473 kts 153°
2026-05-08 17:12 58.14756 34.62652 35250 ft 459 kts 165°
2026-05-08 17:13 58.08854 34.67271 35240 ft 460 kts 165°
2026-05-08 17:13 58.02992 34.71911 35238 ft 460 kts 165°
2026-05-08 17:14 57.97091 34.76642 35236 ft 461 kts 165°
2026-05-08 17:14 57.91186 34.81380 35228 ft 461 kts 165°
2026-05-08 17:15 57.85273 34.86105 35225 ft 462 kts 165°
2026-05-08 17:15 57.79396 34.90783 35223 ft 462 kts 164°
2026-05-08 17:16 57.73472 34.95480 35224 ft 463 kts 165°
2026-05-08 17:16 57.67657 35.00837 35225 ft 470 kts 157°
2026-05-08 17:17 57.62013 35.07060 35222 ft 472 kts 156°
2026-05-08 17:17 57.56408 35.13281 35218 ft 472 kts 156°
2026-05-08 17:18 57.50736 35.19452 35221 ft 472 kts 156°
2026-05-08 17:18 57.45053 35.25556 35218 ft 472 kts 157°
2026-05-08 17:19 57.39355 35.31642 35219 ft 472 kts 157°
2026-05-08 17:19 57.33700 35.37664 35214 ft 472 kts 156°
2026-05-08 17:20 57.28001 35.43714 35215 ft 472 kts 156°
2026-05-08 17:20 57.22303 35.49743 35212 ft 472 kts 156°
2026-05-08 17:21 57.16630 35.55723 35214 ft 472 kts 156°
2026-05-08 17:21 57.10960 35.61678 35208 ft 472 kts 156°
2026-05-08 17:22 57.05254 35.67650 35214 ft 472 kts 156°
2026-05-08 17:22 56.99542 35.73607 35212 ft 472 kts 156°
2026-05-08 17:23 56.93824 35.79549 35207 ft 472 kts 156°
2026-05-08 17:23 56.88108 35.85470 35207 ft 472 kts 156°
2026-05-08 17:24 56.82429 35.91331 35210 ft 472 kts 156°
2026-05-08 17:24 56.76702 35.97222 35206 ft 472 kts 156°
2026-05-08 17:25 56.70979 36.03086 35200 ft 472 kts 156°
2026-05-08 17:25 56.65257 36.08927 35198 ft 472 kts 156°
2026-05-08 17:26 56.59572 36.14712 35199 ft 471 kts 156°
2026-05-08 17:26 56.53847 36.20520 35200 ft 471 kts 156°
2026-05-08 17:27 56.48121 36.26309 35204 ft 471 kts 156°
2026-05-08 17:27 56.42393 36.32082 35195 ft 471 kts 156°
2026-05-08 17:28 56.36815 36.38363 35192 ft 478 kts 145°
2026-05-08 17:28 56.32284 36.47133 35200 ft 486 kts 130°
2026-05-08 17:29 56.28279 36.56929 35184 ft 486 kts 129°
2026-05-08 17:29 56.24282 36.66646 35186 ft 485 kts 130°
2026-05-08 17:30 56.20217 36.76307 35188 ft 485 kts 131°
2026-05-08 17:30 56.16132 36.85926 35186 ft 485 kts 131°
2026-05-08 17:31 56.12065 36.95480 35185 ft 485 kts 131°
2026-05-08 17:31 56.07961 37.05087 35183 ft 485 kts 131°
2026-05-08 17:32 56.03895 37.14735 35181 ft 486 kts 130°
2026-05-08 17:32 55.99847 37.24384 35186 ft 485 kts 131°
2026-05-08 17:33 55.95332 37.33050 35181 ft 475 kts 146°
2026-05-08 17:33 55.89899 37.39584 35180 ft 470 kts 152°
2026-05-08 17:34 55.84413 37.45933 35175 ft 470 kts 151°
2026-05-08 17:34 55.78971 37.52337 35177 ft 470 kts 151°
2026-05-08 17:35 55.73568 37.58729 35181 ft 469 kts 151°
2026-05-08 17:35 55.68133 37.65136 35178 ft 469 kts 151°
2026-05-08 17:36 55.62628 37.71255 35177 ft 465 kts 155°
2026-05-08 17:36 55.56911 37.76592 35181 ft 464 kts 157°
2026-05-08 17:37 55.51181 37.81876 35179 ft 465 kts 156°
2026-05-08 17:37 55.45506 37.87206 35185 ft 465 kts 156°
2026-05-08 17:38 55.39759 37.92411 35176 ft 462 kts 162°
2026-05-08 17:38 55.33629 37.95228 35192 ft 453 kts 175°
2026-05-08 17:39 55.27397 37.96962 35173 ft 454 kts 175°
2026-05-08 17:39 55.21205 37.98709 35176 ft 454 kts 175°
2026-05-08 17:40 55.14967 38.00533 35168 ft 455 kts 174°
2026-05-08 17:40 55.08726 38.02378 35169 ft 455 kts 174°
2026-05-08 17:41 55.02478 38.04220 35157 ft 455 kts 174°
2026-05-08 17:41 54.96275 38.06040 35154 ft 455 kts 174°
2026-05-08 17:42 54.90037 38.07864 35155 ft 454 kts 174°
2026-05-08 17:42 54.83868 38.09662 35154 ft 453 kts 174°
2026-05-08 17:43 54.77652 38.11469 35154 ft 452 kts 174°
2026-05-08 17:43 54.71449 38.13265 35147 ft 452 kts 174°
2026-05-08 17:44 54.65298 38.15041 35145 ft 451 kts 174°
2026-05-08 17:44 54.59110 38.16822 35141 ft 450 kts 174°
2026-05-08 17:45 54.52930 38.18597 35140 ft 450 kts 174°
2026-05-08 17:45 54.46748 38.20367 35137 ft 451 kts 174°
2026-05-08 17:46 54.40558 38.22143 35129 ft 451 kts 174°
2026-05-08 17:46 54.34409 38.23918 35131 ft 452 kts 172°
2026-05-08 17:47 54.28265 38.26420 35126 ft 454 kts 169°
2026-05-08 17:47 54.23178 38.28706 35118 ft 455 kts 168°
2026-05-08 17:48 54.16004 38.31883 35115 ft 455 kts 169°
2026-05-08 17:48 54.09900 38.34522 35110 ft 456 kts 169°
2026-05-08 17:49 54.03745 38.37160 35103 ft 456 kts 169°
2026-05-08 17:49 53.97582 38.39794 35098 ft 457 kts 169°
2026-05-08 17:50 53.91420 38.42421 35091 ft 457 kts 169°
2026-05-08 17:50 53.85256 38.45043 35084 ft 457 kts 169°
2026-05-08 17:51 53.79128 38.47642 35081 ft 457 kts 169°
2026-05-08 17:51 53.72964 38.50221 35074 ft 456 kts 170°
2026-05-08 17:52 53.66754 38.52337 35068 ft 455 kts 172°
2026-05-08 17:53 53.57409 38.55269 35061 ft 456 kts 172°
2026-05-08 17:53 53.51225 38.57265 35051 ft 456 kts 171°
2026-05-08 17:54 53.44997 38.59299 35051 ft 456 kts 171°
2026-05-08 17:54 53.38763 38.61336 35044 ft 456 kts 171°
2026-05-08 17:55 53.33587 38.63022 35043 ft 456 kts 171°
2026-05-08 17:55 53.26337 38.65374 35034 ft 456 kts 171°
2026-05-08 17:56 53.20105 38.67389 35027 ft 456 kts 171°
2026-05-08 17:56 53.13867 38.69401 35027 ft 456 kts 171°
2026-05-08 17:57 53.08690 38.71065 35023 ft 456 kts 171°
2026-05-08 17:57 53.01448 38.73386 35020 ft 456 kts 171°
2026-05-08 17:58 52.95219 38.75377 35019 ft 456 kts 171°
2026-05-08 17:58 52.90047 38.77025 35016 ft 456 kts 171°
2026-05-08 17:59 52.83815 38.79006 35018 ft 456 kts 171°
2026-05-08 17:59 52.76577 38.81300 35014 ft 456 kts 171°
2026-05-08 18:00 52.71394 38.82937 35017 ft 456 kts 171°
2026-05-08 18:00 52.62029 38.85886 35015 ft 457 kts 171°
2026-05-08 18:01 52.54773 38.88162 35013 ft 457 kts 171°
2026-05-08 18:01 52.49535 38.89801 35015 ft 457 kts 171°
2026-05-08 18:02 52.43329 38.91737 35018 ft 457 kts 171°
2026-05-08 18:02 52.37266 38.94905 35020 ft 460 kts 155°
2026-05-08 18:03 52.31854 39.00527 35017 ft 462 kts 147°
2026-05-08 18:03 52.26285 39.06684 35017 ft 462 kts 147°
2026-05-08 18:04 52.20953 39.12384 35022 ft 461 kts 148°
2026-05-08 18:04 52.15579 39.18104 35017 ft 461 kts 148°
2026-05-08 18:05 52.10203 39.23821 35024 ft 461 kts 148°
2026-05-08 18:05 52.04828 39.29511 35027 ft 461 kts 148°
2026-05-08 18:06 51.99445 39.35193 35024 ft 461 kts 148°
2026-05-08 18:06 51.94100 39.40824 35019 ft 461 kts 148°
2026-05-08 18:07 51.88721 39.46474 35039 ft 461 kts 148°
2026-05-08 18:07 51.83341 39.52108 35041 ft 460 kts 148°
2026-05-08 18:08 51.77967 39.57723 35036 ft 460 kts 148°
2026-05-08 18:08 51.72493 39.63063 35025 ft 459 kts 156°
2026-05-08 18:09 51.66541 39.66498 35027 ft 458 kts 163°
2026-05-08 18:09 51.60484 39.69656 35027 ft 458 kts 163°
2026-05-08 18:10 51.54440 39.72864 35027 ft 458 kts 162°
2026-05-08 18:10 51.48393 39.76121 35024 ft 458 kts 162°
2026-05-08 18:11 51.42395 39.79356 35021 ft 458 kts 162°
2026-05-08 18:11 51.36351 39.82606 35027 ft 458 kts 162°
2026-05-08 18:12 51.30301 39.85848 35022 ft 459 kts 162°
2026-05-08 18:12 51.24249 39.89081 35022 ft 459 kts 162°
2026-05-08 18:13 51.18232 39.92288 35020 ft 459 kts 162°
2026-05-08 18:13 51.12176 39.95507 35026 ft 459 kts 162°
2026-05-08 18:14 51.06109 39.98717 35024 ft 459 kts 162°
2026-05-08 18:14 51.00045 40.01915 35021 ft 459 kts 162°
2026-05-08 18:15 50.94020 40.05087 35026 ft 460 kts 162°
2026-05-08 18:15 50.87949 40.08274 35028 ft 460 kts 162°
2026-05-08 18:16 50.81869 40.11456 35028 ft 460 kts 162°
2026-05-08 18:16 50.75790 40.14627 35025 ft 460 kts 162°
2026-05-08 18:17 50.69744 40.17774 35031 ft 461 kts 162°
2026-05-08 18:17 50.63656 40.20936 35029 ft 461 kts 162°
2026-05-08 18:18 50.57564 40.24091 35030 ft 461 kts 162°
2026-05-08 18:18 50.51472 40.27237 35027 ft 461 kts 161°
2026-05-08 18:19 50.45424 40.30353 35032 ft 461 kts 161°
2026-05-08 18:19 50.39326 40.33485 35033 ft 461 kts 161°
2026-05-08 18:20 50.33230 40.36608 35034 ft 461 kts 161°
2026-05-08 18:20 50.27137 40.39722 35031 ft 461 kts 161°
2026-05-08 18:21 50.21041 40.42829 35034 ft 461 kts 161°
2026-05-08 18:21 50.14983 40.45909 35033 ft 461 kts 161°
2026-05-08 18:22 50.08884 40.49001 35033 ft 461 kts 161°
2026-05-08 18:22 50.02785 40.52079 35033 ft 461 kts 162°
2026-05-08 18:23 49.96688 40.55139 35025 ft 461 kts 162°
2026-05-08 18:23 49.90625 40.58175 35034 ft 461 kts 162°
2026-05-08 18:24 49.84525 40.61224 35031 ft 460 kts 162°
2026-05-08 18:24 49.78429 40.64264 35031 ft 460 kts 162°
2026-05-08 18:25 49.72329 40.67299 35030 ft 460 kts 162°
2026-05-08 18:25 49.66232 40.70279 35033 ft 460 kts 165°
2026-05-08 18:26 49.59934 40.71381 35048 ft 460 kts 181°
2026-05-08 18:26 49.53538 40.71061 35033 ft 460 kts 182°
2026-05-08 18:27 49.48219 40.70829 35032 ft 460 kts 181°
2026-05-08 18:27 49.40741 40.70543 35032 ft 460 kts 185°
2026-05-08 18:28 49.34587 40.68233 35036 ft 459 kts 203°
2026-05-08 18:28 49.28891 40.63820 35045 ft 459 kts 208°
2026-05-08 18:29 49.23238 40.59266 35046 ft 459 kts 208°
2026-05-08 18:29 49.17556 40.54782 35052 ft 459 kts 207°
2026-05-08 18:30 49.11900 40.50377 35053 ft 460 kts 207°
2026-05-08 18:30 49.06201 40.45956 35054 ft 460 kts 207°
2026-05-08 18:31 49.00498 40.41540 35057 ft 460 kts 207°
2026-05-08 18:31 48.94794 40.37132 35058 ft 460 kts 207°
2026-05-08 18:32 48.89034 40.33051 35058 ft 460 kts 199°
2026-05-08 18:32 48.82770 40.31153 35066 ft 460 kts 187°
2026-05-08 18:33 48.76410 40.29940 35064 ft 461 kts 187°
2026-05-08 18:33 48.70048 40.28673 35067 ft 461 kts 188°
2026-05-08 18:34 48.63736 40.27355 35070 ft 461 kts 188°
2026-05-08 18:34 48.57382 40.26018 35067 ft 461 kts 188°
2026-05-08 18:35 48.51022 40.24688 35075 ft 461 kts 188°
2026-05-08 18:35 48.44658 40.23363 35075 ft 462 kts 188°
2026-05-08 18:36 48.38336 40.22049 35078 ft 462 kts 188°
2026-05-08 18:36 48.31974 40.20729 35080 ft 462 kts 188°
2026-05-08 18:37 48.25602 40.19411 35079 ft 462 kts 188°
2026-05-08 18:37 48.19231 40.18096 35082 ft 462 kts 188°
2026-05-08 18:38 48.12902 40.16793 35084 ft 462 kts 188°
2026-05-08 18:38 48.06536 40.15404 35086 ft 462 kts 190°
2026-05-08 18:39 48.00229 40.13516 35091 ft 462 kts 192°
2026-05-08 18:39 47.93927 40.11583 35092 ft 462 kts 192°
2026-05-08 18:40 47.87628 40.09674 35093 ft 462 kts 194°
2026-05-08 18:40 47.81480 40.07087 35099 ft 462 kts 197°
2026-05-08 18:41 47.75329 40.04302 35098 ft 462 kts 197°
2026-05-08 18:41 47.69163 40.01582 35102 ft 462 kts 197°
2026-05-08 18:42 47.62987 39.98909 35104 ft 463 kts 197°
2026-05-08 18:42 47.56842 39.96262 35102 ft 463 kts 197°
2026-05-08 18:43 47.50662 39.93603 35103 ft 463 kts 197°
2026-05-08 18:43 47.44423 39.91191 35101 ft 463 kts 194°
2026-05-08 18:44 47.38143 39.89025 35104 ft 464 kts 194°
2026-05-08 18:44 47.31863 39.86818 35108 ft 464 kts 194°
2026-05-08 18:45 47.25635 39.84591 35109 ft 464 kts 194°
2026-05-08 18:45 47.19355 39.82350 35117 ft 464 kts 194°
2026-05-08 18:46 47.13067 39.80119 35126 ft 465 kts 194°
2026-05-08 18:46 47.06822 39.77911 35122 ft 465 kts 194°
2026-05-08 18:47 47.00537 39.75693 35125 ft 465 kts 194°
2026-05-08 18:47 46.94245 39.73477 35127 ft 465 kts 194°
2026-05-08 18:48 46.87958 39.71268 35128 ft 465 kts 194°
2026-05-08 18:48 46.81670 39.69064 35130 ft 465 kts 194°
2026-05-08 18:49 46.75427 39.66881 35128 ft 464 kts 194°
2026-05-08 18:49 46.69139 39.64688 35120 ft 465 kts 194°
2026-05-08 18:50 46.65974 39.63585 34415 ft 470 kts 194°
2026-05-08 18:50 46.62809 39.62484 33586 ft 466 kts 194°
2026-05-08 18:50 46.59669 39.61393 32694 ft 463 kts 194°
2026-05-08 18:50 46.56535 39.60305 31790 ft 461 kts 194°
2026-05-08 18:51 46.53461 39.59240 30868 ft 460 kts 194°
2026-05-08 18:51 46.50356 39.58165 29866 ft 459 kts 194°
2026-05-08 18:51 46.47256 39.57093 29009 ft 453 kts 194°
2026-05-08 18:51 46.44219 39.56045 28280 ft 445 kts 194°
2026-05-08 18:52 46.41237 39.55016 27609 ft 436 kts 194°
2026-05-08 18:52 46.38304 39.54005 26933 ft 430 kts 194°
2026-05-08 18:52 46.35402 39.53045 26368 ft 424 kts 193°
2026-05-08 18:52 46.32534 39.52159 25745 ft 421 kts 192°
2026-05-08 18:53 46.29683 39.51302 25131 ft 430 kts 192°
2026-05-08 18:53 46.26729 39.50418 24482 ft 436 kts 192°
2026-05-08 18:53 46.23771 39.49529 23793 ft 431 kts 192°
2026-05-08 18:53 46.20863 39.48651 23043 ft 424 kts 192°
2026-05-08 18:54 46.18007 39.47785 22357 ft 416 kts 192°
2026-05-08 18:54 46.15201 39.46932 21715 ft 408 kts 192°
2026-05-08 18:54 46.12448 39.46094 21078 ft 401 kts 192°
2026-05-08 18:54 46.09735 39.45270 20471 ft 396 kts 192°
2026-05-08 18:55 46.04449 39.43667 19287 ft 388 kts 191°
2026-05-08 18:55 46.01806 39.42867 18703 ft 388 kts 191°
2026-05-08 18:55 45.99166 39.42068 18054 ft 388 kts 191°
2026-05-08 18:56 45.96527 39.41271 17412 ft 387 kts 191°
2026-05-08 18:56 45.93894 39.40476 16781 ft 386 kts 191°
2026-05-08 18:56 45.91267 39.39684 16178 ft 384 kts 191°
2026-05-08 18:56 45.88670 39.38901 15591 ft 378 kts 191°
2026-05-08 18:57 45.86121 39.38130 15020 ft 372 kts 191°
2026-05-08 18:57 45.84454 39.37624 14651 ft 368 kts 191°
2026-05-08 18:57 45.81169 39.36627 13909 ft 361 kts 191°
2026-05-08 18:57 45.78726 39.35886 13293 ft 356 kts 191°
2026-05-08 18:58 45.76320 39.35158 12704 ft 351 kts 191°
2026-05-08 18:58 45.73942 39.34439 12158 ft 346 kts 191°
2026-05-08 18:58 45.71602 39.33731 11615 ft 342 kts 190°
2026-05-08 18:58 45.69282 39.33031 11089 ft 341 kts 190°
2026-05-08 18:59 45.66963 39.32335 10830 ft 337 kts 189°
2026-05-08 18:59 45.64658 39.32234 10669 ft 330 kts 168°
2026-05-08 18:59 45.62520 39.33101 10561 ft 317 kts 159°
2026-05-08 18:59 45.60490 39.34130 10421 ft 302 kts 158°
2026-05-08 19:00 45.58559 39.35142 10291 ft 289 kts 158°
2026-05-08 19:00 45.56708 39.36112 10173 ft 277 kts 158°
2026-05-08 19:00 45.54916 39.37043 9886 ft 273 kts 158°
2026-05-08 19:00 45.53144 39.37957 9572 ft 269 kts 158°
2026-05-08 19:01 45.51394 39.38854 9263 ft 266 kts 158°
2026-05-08 19:01 45.49656 39.39741 8961 ft 264 kts 158°
2026-05-08 19:01 45.47960 39.40602 8661 ft 262 kts 158°
2026-05-08 19:01 45.46247 39.41470 8357 ft 260 kts 158°
2026-05-08 19:02 45.44548 39.42330 8051 ft 259 kts 158°
2026-05-08 19:02 45.42859 39.43183 7756 ft 257 kts 159°
2026-05-08 19:02 45.41174 39.44033 7461 ft 256 kts 159°
2026-05-08 19:02 45.39499 39.44877 7165 ft 255 kts 159°
2026-05-08 19:03 45.37829 39.45718 6871 ft 254 kts 159°
2026-05-08 19:03 45.36182 39.46546 6579 ft 254 kts 159°
2026-05-08 19:03 45.34521 39.47382 6252 ft 254 kts 159°
2026-05-08 19:03 45.32858 39.48217 5949 ft 253 kts 159°
2026-05-08 19:04 45.31204 39.49048 5654 ft 252 kts 159°
2026-05-08 19:04 45.29552 39.49878 5355 ft 251 kts 159°
2026-05-08 19:04 45.27904 39.50704 5066 ft 250 kts 160°
2026-05-08 19:04 45.26265 39.51525 4774 ft 249 kts 160°
2026-05-08 19:05 45.24634 39.52342 4492 ft 248 kts 160°
2026-05-08 19:05 45.22959 39.52705 4295 ft 249 kts 188°
2026-05-08 19:05 45.21387 39.51825 4268 ft 239 kts 218°
2026-05-08 19:05 45.20277 39.50177 4251 ft 226 kts 233°
2026-05-08 19:06 45.19367 39.48411 4147 ft 218 kts 235°
2026-05-08 19:06 45.18487 39.46709 4009 ft 212 kts 234°
2026-05-08 19:06 45.17609 39.45038 3851 ft 208 kts 235°
2026-05-08 19:06 45.16758 39.43407 3707 ft 207 kts 234°
2026-05-08 19:07 45.15886 39.41777 3476 ft 208 kts 233°
2026-05-08 19:07 45.15004 39.40148 3233 ft 208 kts 233°
2026-05-08 19:07 45.14122 39.38525 2977 ft 208 kts 233°
2026-05-08 19:07 45.13253 39.36928 2744 ft 208 kts 233°
2026-05-08 19:08 45.12372 39.35308 2499 ft 207 kts 234°
2026-05-08 19:08 45.11498 39.33694 2282 ft 205 kts 234°
2026-05-08 19:08 45.10663 39.32139 2299 ft 189 kts 235°
2026-05-08 19:08 45.09916 39.30715 2313 ft 170 kts 235°
2026-05-08 19:09 45.09229 39.29434 2194 ft 160 kts 234°
2026-05-08 19:09 45.08569 39.28180 1920 ft 158 kts 237°
2026-05-08 19:09 45.07930 39.26960 1749 ft 154 kts 235°
2026-05-08 19:09 45.07275 39.25756 1449 ft 155 kts 234°
2026-05-08 19:10 45.06614 39.24578 1090 ft 155 kts 236°
2026-05-08 19:10 45.05958 39.23381 763 ft 154 kts 235°
2026-05-08 19:10 45.05294 39.22182 493 ft 154 kts 232°
2026-05-08 19:10 45.04614 39.21003 287 ft 154 kts 233°
2026-05-08 19:11 45.03982 39.19881 202 ft 136 kts 235°
2026-05-08 19:11 45.03458 39.18886 119 ft 115 kts 236°
2026-05-08 19:11 45.03170 39.18346 113 ft 35 kts 234°
2026-05-08 19:11 45.03024 39.18077 114 ft 33 kts 232°
2026-05-08 19:12 45.02894 39.17828 114 ft 31 kts 232°
2026-05-08 19:12 45.02768 39.17598 112 ft 29 kts 232°
2026-05-08 19:12 45.02657 39.17397 110 ft 16 kts 233°
2026-05-08 19:12 45.02666 39.17270 109 ft 15 kts 317°
2026-05-08 19:13 45.02766 39.17163 106 ft 24 kts 321°
2026-05-08 19:13 45.02928 39.16976 105 ft 35 kts 322°
2026-05-08 19:13 45.03123 39.16771 105 ft 34 kts 320°
2026-05-08 19:13 45.03302 39.16572 105 ft 32 kts 323°
2026-05-08 19:14 45.03474 39.16387 105 ft 30 kts 322°
2026-05-08 19:14 45.03630 39.16218 105 ft 28 kts 322°
2026-05-08 19:14 45.03739 39.16074 105 ft 18 kts 285°
2026-05-08 19:14 45.03739 39.15901 105 ft 17 kts 269°
2026-05-08 19:15 45.03737 39.15734 105 ft 17 kts 269°
2026-05-08 19:15 45.03746 39.15575 105 ft 16 kts 287°
2026-05-08 19:15 45.03786 39.15431 104 ft 15 kts 291°
2026-05-08 19:15 45.03825 39.15293 105 ft 15 kts 292°
2026-05-08 19:16 45.03817 39.15161 105 ft 14 kts 238°
2026-05-08 19:16 45.03770 39.15043 105 ft 14 kts 242°
2026-05-08 19:16 45.03725 39.14929 105 ft 13 kts 240°
2026-05-08 19:16 45.03681 39.14820 105 ft 13 kts 240°
2026-05-08 19:17 45.03639 39.14713 105 ft 12 kts 240°
2026-05-08 19:17 45.03597 39.14608 105 ft 12 kts 240°
2026-05-08 19:17 45.03557 39.14506 104 ft 12 kts 240°
2026-05-08 19:17 45.03518 39.14407 105 ft 11 kts 241°
2026-05-08 19:18 45.03479 39.14311 105 ft 11 kts 240°
2026-05-08 19:18 45.03442 39.14220 105 ft 11 kts 240°
2026-05-08 19:18 45.03413 39.14145 105 ft 5 kts 242°
2026-05-08 19:18 45.03415 39.14101 105 ft 5 kts 309°
2026-05-08 19:19 45.03438 39.14079 105 ft 2 kts 327°
2026-05-08 19:19 45.03446 39.14073 105 ft 0 kts 334°